Theta_e
295 289 288 285 284 286 288 290 289 289 288 287 286 286 284 284 285 288 289 290 288 287 285 286 285 284 285 287 287 287 285 285 285 285 284 283 283 282 282 283 282 283 284 287 288 287 286 286 285 285 285 285 285 285 286 286 287 287 288 288 288 289 290 289 289 289 289 288 288 288 288 288 289 289 290 291 291 291 292 293 293 294 295 296 296 296
293 289 286 287 287 288 289 289 289 290 289 287 286 284 285 285 285 288 288 289 288 287 282 284 285 285 287 287 287 286 285 284 285 284 283 282 282 282 282 282 282 283 286 285 285 286 284 284 285 285 284 286 285 285 285 286 286 287 287 287 288 289 289 289 289 289 289 289 288 288 288 288 289 289 289 289 290 291 292 292 293 294 295 295 296 296
288 287 289 290 289 290 290 289 288 288 288 287 285 284 282 284 286 289 289 288 288 288 283 283 283 285 286 287 287 285 286 285 285 285 283 282 281 282 282 281 282 283 284 282 283 284 283 284 284 283 284 284 284 284 285 285 286 287 287 288 288 288 288 289 289 289 288 288 288 288 288 288 288 289 289 289 290 291 291 292 292 293 294 295 295 296
288 286 290 289 289 289 288 289 288 288 288 285 284 283 283 284 284 281 286 286 287 286 283 284 285 286 285 285 285 284 284 283 284 284 283 283 282 281 282 282 281 281 281 282 282 282 282 282 282 282 283 283 284 284 284 285 286 287 288 287 287 288 288 288 288 289 288 288 288 287 287 286 286 285 287 287 288 289 290 290 292 292 293 294 295 295
289 292 290 290 289 289 289 289 288 286 284 285 286 284 283 284 284 284 283 285 286 287 287 285 283 282 283 282 281 283 284 284 283 283 282 282 282 283 283 282 282 281 282 281 282 281 281 281 281 282 283 283 283 284 285 285 286 287 287 287 287 287 287 288 288 287 287 286 285 284 284 284 283 283 284 284 285 287 288 288 289 291 292 293 293 294
288 289 291 289 290 290 290 288 287 287 283 283 285 287 287 285 284 283 284 283 280 279 284 284 276 274 280 283 283 281 282 282 282 281 281 282 281 281 281 281 283 284 282 282 282 282 282 281 281 282 282 283 283 284 285 286 287 286 287 287 287 287 287 286 286 286 285 284 282 281 280 279 279 279 280 280 281 281 282 283 286 288 291 292 292 293
288 290 290 290 289 289 289 286 287 288 283 283 283 286 285 284 284 283 282 281 275 274 283 284 276 275 278 279 280 280 281 281 281 280 281 281 280 280 281 281 281 281 282 282 282 281 281 280 281 282 282 282 283 284 285 286 286 286 286 286 286 285 285 285 285 284 284 282 281 280 280 279 279 279 280 282 282 282 282 283 284 286 288 290 291 292
288 289 288 288 288 286 285 284 286 288 284 282 284 284 284 283 283 282 282 282 280 282 283 284 280 276 276 279 281 280 280 280 280 280 280 280 280 280 280 281 280 280 280 281 281 281 280 280 281 281 282 283 283 284 285 285 286 285 285 285 285 284 284 284 284 283 283 281 281 280 279 280 279 280 280 281 281 282 282 283 284 285 286 288 290 292
289 288 287 288 287 284 284 284 287 287 285 283 285 285 283 283 283 282 281 280 280 278 276 279 282 277 275 278 282 280 277 277 279 279 279 279 280 280 280 281 280 281 281 280 280 280 280 281 281 282 282 283 283 284 285 285 285 285 285 284 284 283 283 283 282 282 282 281 281 280 279 278 280 280 280 281 281 281 281 281 281 282 283 285 287 289
289 290 288 288 285 284 285 286 286 287 285 285 284 285 285 284 283 283 279 279 279 276 275 277 280 274 276 277 277 277 277 277 278 279 279 279 279 279 280 280 280 280 280 280 280 280 281 281 282 282 282 283 283 284 285 284 284 284 284 283 283 282 282 282 281 281 281 280 280 279 279 278 278 279 278 279 279 279 280 280 280 281 282 283 285 287
290 293 292 288 285 286 284 284 285 286 287 288 286 285 282 282 283 281 280 279 275 271 277 279 280 278 273 276 277 275 277 280 279 278 278 278 279 279 279 279 280 280 280 280 280 280 281 282 282 282 282 282 283 283 283 283 283 283 283 282 281 281 281 281 280 280 280 280 279 279 278 278 277 277 277 277 277 278 279 279 279 280 281 282 284 285
288 289 288 287 290 289 286 287 287 286 286 286 282 280 279 279 277 276 272 276 270 270 272 276 278 279 272 274 278 279 277 280 280 278 278 278 278 279 279 279 279 279 279 280 280 280 280 281 281 281 282 282 282 282 282 282 282 282 282 281 280 280 280 280 280 279 279 279 279 278 278 277 277 277 277 276 276 277 278 278 278 279 279 280 283 284
284 285 286 288 290 290 286 284 283 285 285 283 278 278 275 271 272 267 270 269 269 272 274 275 276 275 276 279 278 281 277 280 281 280 279 278 278 278 279 279 279 279 279 279 280 280 280 280 281 281 281 281 281 281 281 281 281 281 281 280 279 279 279 279 279 278 278 278 278 277 277 277 278 277 277 277 277 278 277 278 277 277 278 279 280 281
283 282 286 286 287 289 287 283 280 282 282 281 280 274 272 269 265 267 266 267 268 271 276 275 278 273 276 278 280 279 278 279 279 279 279 279 278 278 279 279 279 279 279 280 280 280 279 279 280 280 280 280 281 281 281 280 280 280 280 279 279 278 279 278 278 278 277 277 277 277 277 277 277 276 277 277 277 277 278 278 277 277 277 277 278 279
275 277 282 284 284 288 288 285 281 280 280 281 279 279 275 273 270 272 268 269 274 272 272 275 272 269 269 275 277 278 278 279 279 279 279 279 279 279 278 279 278 278 278 279 279 280 280 280 280 280 280 280 280 280 280 280 279 279 279 279 278 278 278 278 277 277 277 277 277 277 277 277 276 276 277 277 277 277 277 277 277 277 277 277 278 279
281 281 283 284 284 286 286 286 285 281 280 280 279 278 276 276 277 274 269 268 267 269 270 269 273 273 276 277 278 278 278 278 278 278 279 278 278 278 278 278 278 279 279 280 279 279 279 279 280 280 279 279 279 279 279 279 279 278 278 278 278 277 277 277 277 276 276 276 276 276 276 276 276 277 276 276 276 276 276 276 277 276 277 277 278 279
281 278 283 284 283 282 282 283 286 284 278 279 280 276 279 281 280 275 273 272 271 270 272 270 273 277 276 277 276 277 277 277 277 277 277 277 278 277 278 278 278 279 279 279 279 279 279 278 279 279 279 278 279 279 279 278 278 278 277 277 277 277 277 277 277 276 276 276 275 275 275 275 275 275 274 274 274 275 276 276 276 276 276 277 277 278
282 283 282 281 283 282 281 282 283 281 284 280 276 278 282 282 281 277 273 271 270 268 272 272 274 276 274 272 276 275 275 276 275 276 276 277 276 276 278 277 278 279 280 279 279 279 279 279 279 279 279 278 278 278 278 278 278 278 277 277 276 276 276 276 276 276 276 275 275 274 274 274 274 274 274 274 274 274 274 274 275 275 275 275 277 278
282 281 280 280 281 282 283 284 282 283 284 281 280 285 281 275 275 276 271 269 269 270 272 275 273 276 276 277 273 274 274 275 275 275 276 276 276 277 277 277 278 278 278 278 278 278 278 278 279 278 277 278 278 278 278 278 278 277 277 277 276 275 276 276 276 276 275 275 274 274 274 273 274 273 273 274 273 273 273 273 273 274 274 275 276 278
284 281 280 279 280 281 281 281 277 278 283 283 284 280 283 279 278 273 276 274 275 272 272 274 274 274 276 279 275 276 277 277 275 275 275 276 276 276 276 277 277 277 278 278 278 278 278 278 277 277 276 276 277 277 277 277 277 276 276 276 275 276 275 275 275 275 274 274 274 273 273 273 273 273 273 273 272 272 272 272 273 273 274 274 276 277
282 282 279 278 279 281 278 280 280 280 276 277 278 277 278 278 280 279 276 273 274 271 271 272 271 274 277 278 278 278 278 278 277 276 276 276 276 277 277 278 277 277 277 277 277 277 277 277 277 276 276 277 276 276 277 276 276 276 276 275 275 274 274 274 274 274 274 274 273 273 272 272 272 272 272 272 272 271 271 272 273 273 274 274 275 277
279 280 280 276 276 278 281 283 283 282 283 280 280 278 279 276 274 273 273 276 274 274 270 269 272 278 277 279 280 279 280 278 277 277 277 276 276 277 278 277 277 277 277 277 277 276 277 276 276 275 276 276 276 276 275 276 275 275 274 274 274 274 273 273 273 273 273 273 273 272 272 272 272 272 272 271 271 271 271 271 272 273 273 273 274 275
283 279 278 279 280 282 282 283 282 282 282 281 281 280 281 280 278 276 272 274 272 274 274 275 272 275 279 280 280 280 279 279 278 277 277 277 276 276 277 277 277 277 277 278 276 276 276 276 275 276 276 276 276 275 275 275 275 274 274 274 274 273 273 273 273 273 273 272 272 272 272 272 271 271 271 270 270 270 270 271 271 272 272 273 274 275
290 280 276 281 282 280 278 280 280 281 281 279 278 279 279 278 280 279 279 278 273 272 270 271 270 274 278 279 279 279 278 278 278 277 277 277 277 277 276 276 276 277 277 277 276 276 276 275 275 276 276 276 275 275 274 274 274 274 273 273 273 272 272 272 272 272 272 272 272 272 272 271 271 271 270 270 270 270 270 270 271 272 272 273 274 274
281 281 279 277 277 282 276 276 277 279 278 275 276 279 280 282 281 281 278 276 271 274 274 272 268 275 279 278 278 278 278 278 277 277 277 276 276 277 276 276 276 276 276 276 276 276 275 275 275 275 275 275 275 274 274 274 273 273 273 273 272 272 272 272 272 272 271 271 271 271 271 271 271 271 270 270 270 269 270 270 270 271 271 272 272 273
286 281 280 276 277 276 277 279 280 273 276 277 277 278 280 279 279 277 274 274 270 275 276 272 272 279 276 279 278 278 278 277 276 276 276 277 276 276 277 277 276 276 276 276 275 275 274 274 275 275 275 274 274 274 273 273 273 272 272 272 272 272 272 271 271 271 270 271 270 270 270 270 270 271 270 270 269 269 269 270 270 270 271 271 271 272
281 280 283 285 283 282 285 286 280 281 276 274 275 277 278 280 280 280 278 273 272 275 274 276 277 278 277 276 277 278 278 278 277 276 276 276 276 277 276 276 276 276 276 275 275 274 274 275 274 274 274 274 273 273 273 272 272 272 271 271 271 271 271 271 270 270 270 270 270 270 270 270 270 270 269 270 269 270 269 269 269 269 270 271 272 272
278 278 281 283 286 287 288 288 285 282 280 281 277 276 279 279 279 277 275 274 278 273 271 278 279 277 278 280 279 278 279 278 276 276 276 276 276 276 276 276 279 275 275 275 274 274 274 274 274 274 273 273 273 272 272 272 271 271 271 270 270 271 270 270 270 269 269 269 269 269 269 269 270 270 270 270 270 269 269 269 269 269 270 270 270 270
280 280 285 283 282 285 286 285 286 283 281 281 281 279 277 278 278 276 276 279 278 274 274 280 280 276 278 280 282 281 281 279 276 275 276 277 276 275 275 275 275 275 274 274 273 273 273 273 273 273 273 272 272 271 271 271 270 270 270 270 270 270 270 270 269 268 268 268 268 268 269 269 270 270 269 269 268 268 268 268 269 269 269 269 269 270
280 280 283 284 283 283 284 284 284 282 282 282 281 280 279 278 277 278 278 279 278 277 279 279 279 278 280 281 283 281 280 277 276 277 276 276 275 276 274 274 274 274 274 273 273 273 273 273 273 272 272 272 271 270 270 270 269 269 269 269 269 269 269 269 268 267 267 266 267 269 269 269 269 269 269 268 268 268 268 268 268 268 268 268 269 269
283 280 285 282 280 280 283 283 282 281 280 279 281 281 279 279 279 278 278 278 278 277 278 278 277 277 281 284 283 282 278 277 277 276 276 275 275 275 274 274 274 273 273 272 272 273 273 272 272 272 271 271 270 270 269 269 269 269 268 268 268 268 268 268 266 266 266 266 267 268 268 268 268 268 268 267 267 267 266 267 267 267 267 267 268 268
283 280 279 278 276 278 281 280 280 280 279 278 277 278 278 278 276 278 276 278 277 275 277 277 275 275 280 280 281 279 276 276 276 276 275 275 275 275 274 274 273 272 272 272 272 272 272 272 271 271 270 270 270 269 269 268 268 268 267 267 267 267 267 266 265 265 265 266 267 267 268 268 267 267 267 266 266 266 266 266 266 266 266 267 267 268
281 279 278 277 273 276 277 277 275 276 275 273 275 278 279 279 280 280 280 280 279 279 276 274 275 280 281 278 277 275 276 276 276 276 275 275 275 275 275 274 273 272 272 272 272 272 271 271 271 270 270 270 269 269 269 268 267 267 267 266 267 266 265 265 265 265 265 266 266 266 267 267 267 266 265 265 265 265 265 265 266 266 266 266 267 268
281 280 279 281 273 273 272 275 276 273 269 275 281 284 281 279 279 278 278 279 280 280 279 280 281 282 280 278 278 275 275 276 276 276 277 276 275 275 274 273 272 272 272 272 272 271 271 271 270 270 270 269 269 269 269 268 267 267 267 266 266 265 264 264 264 264 265 265 266 266 266 266 265 265 265 265 264 264 264 264 264 265 266 266 266 266
280 280 278 280 274 271 273 274 271 268 273 280 277 280 281 282 281 280 280 281 281 282 281 280 281 281 282 280 278 277 276 276 276 276 276 276 276 276 274 272 272 272 272 271 271 271 270 270 270 269 269 268 268 268 268 267 267 266 265 265 264 264 263 263 263 263 264 264 265 265 265 264 264 264 264 264 264 264 263 264 264 265 265 266 266 266
279 279 278 277 275 273 269 271 267 272 280 281 278 278 280 279 279 279 278 280 281 281 281 280 281 282 282 278 276 276 276 276 276 276 276 276 276 275 273 272 272 272 271 271 270 270 269 269 269 268 268 268 268 267 267 266 266 264 263 264 263 263 262 262 262 263 264 264 263 263 263 263 262 262 262 262 263 263 263 263 264 264 265 266 266 267
284 281 279 274 279 271 273 270 274 280 278 281 282 275 277 276 276 276 273 279 281 282 282 280 281 281 280 275 276 276 276 275 274 274 274 274 274 274 274 273 272 272 271 271 271 270 269 269 268 268 268 267 267 266 265 265 264 263 262 262 262 262 262 262 262 262 262 262 262 262 262 262 261 261 261 261 262 262 262 263 264 264 265 265 266 266
285 280 281 275 274 277 272 272 272 273 271 276 277 279 281 282 281 280 277 276 280 281 282 281 280 280 276 275 275 275 276 275 272 273 274 274 274 273 273 273 272 272 271 270 270 269 268 268 268 268 267 266 265 265 265 264 263 262 261 261 261 261 261 261 261 262 262 261 261 261 261 261 261 260 260 261 261 262 263 264 264 265 266 265 265 266
283 283 281 279 276 275 272 270 271 270 275 276 276 278 279 280 280 278 273 272 278 280 281 281 280 278 275 275 275 276 274 270 271 273 274 274 273 273 272 272 271 270 270 269 268 268 267 267 267 266 266 264 263 264 263 262 262 261 260 260 260 260 260 260 260 260 260 260 260 260 260 260 260 260 260 260 261 263 264 264 264 265 266 266 266 267
279 279 278 274 274 276 273 271 270 275 275 275 275 277 278 280 281 278 270 271 278 278 279 279 279 277 276 276 276 276 274 270 273 274 275 274 274 272 272 271 270 269 269 268 268 268 267 266 265 264 264 263 263 263 262 261 261 259 259 259 259 259 259 259 260 260 260 260 260 260 260 260 260 260 260 261 262 264 265 265 265 266 266 267 267 267
275 274 277 272 275 275 276 272 275 275 281 276 276 277 279 281 278 269 271 277 278 277 277 278 278 278 277 276 277 274 276 276 276 275 275 273 273 272 271 271 270 269 268 267 267 268 265 265 264 263 263 263 263 262 261 260 259 258 258 259 258 258 259 259 259 259 259 259 259 258 259 260 261 261 262 264 265 265 265 266 267 267 267 267 268 268
273 274 273 276 272 273 274 272 272 275 280 277 278 278 281 279 269 271 279 278 278 278 277 279 278 278 278 277 277 277 276 275 275 275 273 273 273 272 271 270 268 267 268 268 268 266 264 264 263 263 262 262 262 261 260 259 258 258 258 257 257 258 259 259 259 258 258 258 258 258 259 260 261 262 263 265 265 265 265 266 267 268 269 269 268 268
275 271 270 272 275 274 274 270 269 267 278 279 278 277 281 277 278 279 277 278 279 278 278 278 278 278 278 277 277 276 275 274 274 274 273 272 271 270 269 268 267 266 265 265 264 265 264 262 262 262 262 262 261 260 260 258 257 257 257 256 257 258 258 258 258 257 257 257 257 258 259 260 261 263 264 265 265 264 264 265 266 267 269 270 269 269
281 272 272 274 278 268 272 268 269 277 279 280 279 275 278 282 280 278 279 277 278 278 278 278 278 278 279 278 277 276 276 275 274 273 272 271 270 269 268 268 267 266 265 264 264 263 261 261 261 261 261 261 260 259 259 257 256 256 256 256 258 258 257 257 256 256 256 256 257 258 260 261 262 263 264 264 264 264 264 264 265 266 268 270 271 271
282 279 281 276 280 274 274 278 280 277 279 281 282 282 282 282 279 280 280 280 278 278 278 279 278 278 279 278 277 276 275 276 275 274 273 271 270 269 267 266 266 265 264 263 263 262 261 261 259 259 259 259 259 258 258 257 256 255 255 257 257 257 256 255 255 255 255 256 257 258 260 261 262 263 263 263 263 263 263 263 264 265 267 269 272 273
284 285 281 280 279 283 283 283 280 278 280 280 282 281 281 280 280 280 280 279 280 280 280 279 279 279 278 278 276 275 276 276 274 272 272 271 269 268 267 265 264 264 263 262 261 262 260 259 257 257 257 257 258 258 258 257 256 254 255 257 256 256 255 254 254 254 255 256 257 259 260 261 262 262 262 263 263 263 263 263 263 264 266 268 270 271
283 282 281 280 280 279 276 284 280 279 280 280 281 280 280 281 280 280 280 280 280 280 280 280 280 279 279 277 277 276 276 274 274 272 271 270 269 267 266 265 264 263 262 260 261 259 258 256 256 256 255 255 257 257 257 256 256 256 256 255 256 255 254 253 253 254 255 256 257 259 260 261 261 261 261 262 262 262 262 263 263 264 265 267 267 268
279 284 280 281 280 280 282 279 281 281 281 281 281 280 279 280 281 281 281 281 281 281 281 280 280 278 278 277 277 276 275 273 273 271 270 269 268 266 265 264 263 263 262 261 260 258 256 256 255 255 255 255 256 257 256 256 255 255 255 255 255 254 253 253 253 253 254 256 258 259 260 260 261 261 260 261 261 261 261 261 262 263 264 265 266 266
283 283 277 281 279 281 283 280 280 280 280 280 280 281 282 281 281 280 280 280 279 279 279 279 280 278 277 277 276 275 273 272 273 271 270 268 266 265 264 264 262 261 260 260 258 257 256 255 254 254 254 255 256 256 255 255 255 255 255 255 254 253 252 252 253 253 254 256 257 258 260 260 260 260 260 260 260 261 261 261 262 262 264 266 267 268
281 279 281 280 277 278 279 281 279 275 275 279 279 281 281 282 281 279 279 279 279 278 278 277 275 275 277 277 275 274 273 272 271 269 268 267 266 265 263 262 260 259 258 259 258 256 255 254 254 253 254 255 255 255 254 254 254 254 255 254 253 253 252 252 252 253 254 256 257 258 259 259 259 259 259 259 259 259 259 263 267 265 264 264 269 272
283 284 281 279 279 279 283 283 283 284 282 281 281 282 282 281 280 278 278 278 279 279 278 276 273 272 273 273 274 274 272 271 269 268 266 265 264 264 263 261 259 258 258 257 255 254 254 254 254 253 253 254 255 254 253 253 253 253 254 254 253 253 252 252 252 253 254 255 256 258 259 259 259 259 259 259 258 258 258 258 260 265 268 269 269 270
Wind_Speed
3 5 1 2 6 4 1 3 2 4 4 3 1 2 7 7 8 4 3 2 1 1 7 8 5 4 5 9 8 7 6 7 9 9 7 6 6 5 4 4 3 3 1 1 0 1 3 5 5 5 5 5 6 6 7 9 9 10 12 12 13 12 13 13 14 14 14 15 15 15 15 16 15 14 14 14 13 14 14 14 13 13 12 12 13 12
6 6 5 6 6 4 2 3 1 1 1 3 4 4 8 5 9 6 4 3 1 2 3 3 4 6 8 5 9 5 9 11 11 10 8 7 6 5 5 4 4 1 1 2 2 3 4 5 7 6 5 6 9 9 8 9 9 9 11 11 14 13 14 14 14 13 13 12 13 14 15 16 17 15 13 15 15 15 15 14 13 13 13 13 13 12
4 5 7 8 5 1 2 3 3 4 4 4 5 4 4 8 6 8 3 2 1 1 7 4 5 8 8 9 8 12 12 7 6 9 9 9 7 5 5 4 2 1 0 2 2 2 3 5 5 4 6 7 5 6 7 7 9 10 11 12 13 14 15 14 14 12 13 14 15 14 14 15 15 15 16 17 18 17 18 16 14 13 13 13 12 12
8 3 7 4 3 2 1 1 3 2 2 4 4 3 8 4 2 6 2 4 3 1 3 4 12 10 4 1 7 5 5 4 5 7 7 8 8 6 6 5 4 3 2 1 2 2 4 4 5 6 6 6 5 6 6 8 10 10 12 13 15 16 15 14 13 14 16 17 16 15 16 17 16 18 18 20 18 17 18 18 15 13 12 13 12 11
8 6 3 3 4 3 2 1 1 3 6 5 6 5 5 4 5 4 6 4 5 6 3 9 11 8 9 6 4 2 3 8 6 7 6 5 6 7 5 4 5 4 2 2 1 2 2 4 4 5 5 4 5 6 8 9 10 10 13 14 14 14 14 13 14 15 15 15 15 15 18 17 17 14 12 13 15 13 15 17 17 16 13 12 11 12
8 4 2 3 2 1 2 2 4 5 5 3 5 7 6 2 4 4 4 6 5 6 5 4 7 6 7 14 13 6 4 7 5 8 7 6 5 5 6 5 4 4 3 3 1 1 1 2 4 5 5 5 6 8 8 9 11 13 13 13 13 13 13 14 15 16 15 15 16 17 17 20 17 18 14 12 14 16 16 16 18 20 19 15 13 12
4 0 3 3 3 1 1 3 3 5 6 0 6 4 3 3 1 1 3 3 5 4 3 3 5 11 3 6 9 7 9 9 4 7 8 6 6 5 6 5 4 4 1 1 1 1 1 4 4 3 4 6 8 6 7 9 11 12 12 11 12 13 13 14 15 17 15 16 16 17 17 15 16 18 17 14 14 13 16 17 20 18 19 19 17 14
2 0 3 2 2 3 3 5 4 6 4 5 1 3 3 0 2 4 3 5 9 0 4 2 3 10 11 7 7 8 11 8 8 7 8 7 7 6 6 5 3 3 3 2 2 2 3 4 2 4 5 6 6 6 7 9 10 11 11 10 12 12 13 13 14 15 15 15 15 17 17 17 16 16 19 18 16 16 15 18 17 15 16 19 18 16
3 2 3 2 1 3 6 5 3 5 4 3 2 5 2 3 5 5 5 7 4 4 9 6 5 4 7 4 8 13 8 8 12 11 10 8 7 7 6 6 4 4 3 3 2 3 4 2 2 3 6 6 6 6 8 10 10 10 10 11 11 13 13 13 15 15 15 14 14 14 14 18 16 16 16 17 17 16 16 19 17 17 18 17 19 18
2 2 5 6 4 7 4 2 6 8 1 2 3 2 3 3 4 5 5 6 2 1 14 4 7 6 12 4 5 3 6 10 13 13 10 9 8 7 7 5 5 3 3 2 4 4 3 1 2 3 5 6 5 6 8 9 9 10 10 12 12 14 12 13 15 15 15 15 13 14 16 19 19 16 17 16 17 16 16 17 16 15 15 14 16 17
2 2 4 4 5 4 4 2 3 2 3 1 0 3 4 3 4 1 2 1 2 4 14 5 10 8 9 5 10 12 12 15 10 6 6 6 7 7 6 6 4 4 4 3 4 4 2 1 3 5 6 5 5 6 8 10 10 11 11 12 14 14 12 13 14 15 16 15 14 14 17 19 20 19 18 18 19 17 16 14 15 16 16 15 15 15
1 1 0 2 2 3 3 1 2 1 1 1 1 1 5 7 4 2 2 3 1 8 6 2 6 6 8 4 7 7 2 10 16 18 14 10 8 8 6 5 5 4 3 4 4 4 1 4 6 5 6 5 6 7 9 10 11 11 11 12 15 15 14 13 14 15 15 14 14 15 17 18 17 17 16 18 20 19 16 15 15 14 15 16 15 14
2 6 2 2 2 8 2 1 2 2 1 3 2 2 3 6 5 3 2 2 6 9 2 1 1 2 15 12 5 10 4 6 13 14 14 11 9 7 6 5 5 4 4 4 4 1 4 6 6 6 5 5 5 7 9 11 11 12 12 13 15 17 15 15 16 16 16 16 16 16 18 18 16 17 17 18 18 16 15 14 14 15 16 16 16 15
7 2 2 2 2 3 6 3 2 0 2 3 2 3 2 3 2 5 5 3 4 5 3 1 2 7 3 6 7 9 5 8 10 10 8 10 9 7 6 5 5 5 4 4 1 4 4 4 4 4 4 4 5 7 10 11 11 11 12 13 15 17 15 15 16 17 17 17 16 15 16 16 16 17 17 16 15 15 14 13 15 14 15 15 17 17
4 5 5 5 2 2 5 4 7 3 6 7 2 6 7 6 2 7 1 5 9 8 3 3 3 8 2 4 3 5 7 8 7 8 7 7 8 7 7 6 6 4 3 1 4 3 3 4 4 4 4 4 5 8 10 10 11 12 13 14 16 17 17 16 17 17 19 17 17 16 16 16 14 14 14 15 14 15 16 16 15 14 13 14 16 17
8 7 2 1 1 3 6 1 3 4 2 2 2 5 4 7 6 7 5 2 4 8 7 3 7 4 4 3 2 5 7 6 6 7 7 7 6 6 5 5 5 2 1 2 3 2 3 3 4 4 4 4 5 8 9 10 11 12 13 15 16 16 16 15 16 17 17 18 16 17 18 18 15 15 14 13 14 15 15 16 15 14 14 13 14 16
1 5 1 1 5 1 1 0 1 2 2 1 3 4 6 2 5 3 2 1 1 1 14 4 8 4 2 1 2 5 8 6 6 7 7 7 7 6 5 5 3 1 1 1 1 1 3 4 4 3 3 4 7 9 10 11 10 11 14 14 17 17 16 17 17 16 15 16 17 18 18 16 16 15 16 17 19 20 16 14 13 13 14 16 14 13
4 8 1 3 4 1 1 0 0 3 2 6 3 7 1 2 2 3 4 3 1 5 10 5 10 8 5 9 5 5 9 9 7 8 8 7 7 6 6 4 2 2 0 0 1 2 3 3 4 3 2 4 6 9 11 12 10 11 11 13 15 16 18 18 18 18 16 16 17 18 18 18 16 16 18 16 19 18 16 15 13 13 13 14 15 14
4 9 3 2 0 3 1 0 3 0 1 4 2 2 3 3 2 0 5 4 3 8 8 6 5 13 10 8 7 12 13 13 10 7 7 7 6 6 5 4 1 1 1 1 2 3 3 4 5 3 3 4 5 7 8 9 10 12 12 11 12 15 14 14 15 15 14 14 13 13 16 17 17 17 16 17 17 16 16 16 14 14 14 16 16 15
1 4 4 1 2 1 1 4 6 4 1 2 1 1 1 2 4 3 5 3 2 11 6 10 3 14 8 8 18 18 17 15 10 9 9 8 8 6 5 4 3 3 2 2 2 3 4 4 4 2 4 6 7 7 7 8 10 13 12 12 13 14 13 15 15 15 16 15 14 16 16 16 16 16 16 17 14 15 14 17 16 15 17 14 15 14
2 4 9 1 4 1 2 6 9 10 7 2 2 2 1 2 1 2 1 5 6 5 5 8 14 5 5 5 14 14 17 16 14 11 8 7 7 7 7 6 5 3 2 3 3 3 4 4 2 3 4 5 6 5 6 8 10 11 11 13 13 14 16 16 16 16 15 15 15 16 17 17 16 18 16 15 16 15 17 17 16 15 13 14 14 13
1 2 10 2 1 7 8 2 7 8 10 9 11 11 13 7 3 3 10 3 4 7 6 3 19 11 4 3 7 10 12 12 10 11 8 7 8 7 6 5 4 3 3 3 3 3 4 3 2 4 4 4 5 7 9 10 10 11 13 13 13 13 13 14 16 16 17 15 15 15 17 17 15 16 14 17 16 15 16 13 16 13 14 15 12 13
5 2 1 10 9 10 4 2 0 2 2 4 8 8 10 8 4 5 9 7 0 7 1 12 10 20 8 6 7 10 11 12 10 8 6 7 8 7 7 5 4 4 3 3 2 3 3 2 3 4 6 7 8 9 10 10 10 11 13 14 13 14 16 15 15 15 15 15 15 16 17 16 17 16 17 17 13 17 14 16 14 14 14 13 14 13
2 2 1 11 5 2 1 1 3 3 2 2 4 2 5 12 15 14 11 3 4 2 4 9 10 15 2 0 6 8 7 8 6 7 8 8 6 7 5 4 3 2 3 2 2 3 2 1 4 5 8 9 9 10 11 10 11 12 12 13 14 15 16 16 15 16 16 16 16 16 16 15 16 15 15 14 15 14 15 15 12 14 13 16 11 13
3 4 6 5 6 6 2 3 2 2 1 5 5 8 11 7 5 4 1 2 3 12 14 8 14 17 4 2 3 7 5 7 6 5 10 8 5 5 5 4 4 3 2 1 2 1 1 3 5 6 7 8 9 10 11 12 12 12 14 13 14 15 15 15 15 16 18 16 19 18 17 18 17 18 17 16 13 16 17 13 14 11 15 14 15 14
5 4 7 6 10 14 18 13 7 5 11 5 2 4 9 13 10 4 10 6 6 13 11 13 15 16 2 2 9 6 9 6 4 7 3 7 7 6 5 5 4 2 0 1 2 1 3 4 5 7 8 8 9 10 11 13 13 13 13 14 12 14 16 16 15 16 17 18 18 20 21 18 21 23 23 19 17 15 13 14 12 13 13 13 16 16
3 1 8 12 12 17 18 10 4 5 5 6 6 13 12 12 14 14 2 4 18 7 9 21 19 21 10 5 8 8 7 10 7 6 7 5 6 6 6 4 2 1 1 2 1 1 3 5 8 8 8 8 9 9 10 12 14 14 15 16 15 13 14 15 15 17 17 18 19 20 19 21 23 23 22 24 18 20 18 17 18 17 18 15 16 16
1 3 13 14 20 23 20 17 4 5 11 10 7 11 13 14 17 17 15 21 5 4 19 22 18 16 23 14 10 10 10 8 6 9 8 8 8 7 4 3 1 1 1 0 2 4 5 7 8 9 9 9 10 11 11 11 12 13 14 16 16 15 14 14 16 18 18 19 20 20 19 20 20 19 18 16 22 18 19 20 18 18 17 17 18 18
6 9 15 9 21 22 19 16 12 7 10 13 13 8 13 16 17 20 23 27 11 12 24 27 8 14 20 15 15 13 13 12 11 11 10 8 5 4 3 1 1 1 1 1 2 3 5 8 9 10 10 10 11 12 13 13 14 14 14 15 15 14 15 15 16 18 19 19 20 20 18 19 21 21 22 23 19 22 21 19 19 18 18 18 18 16
2 10 12 6 16 16 17 14 10 12 16 17 21 11 15 18 21 23 25 23 21 22 27 24 23 24 20 15 12 7 8 8 6 6 5 6 6 5 3 1 0 1 0 2 3 4 5 6 7 8 10 11 12 13 14 14 14 15 16 16 16 16 15 15 17 19 19 18 17 17 19 22 19 16 16 19 19 17 20 20 20 20 19 18 18 18
7 8 6 4 8 19 19 7 9 11 14 21 24 13 19 19 17 21 22 20 18 23 27 29 25 26 24 16 10 5 7 5 7 8 9 7 7 5 3 1 1 1 1 2 3 4 5 6 7 8 9 10 11 12 13 13 14 15 16 15 16 16 15 15 18 17 18 19 20 23 22 19 23 23 24 21 19 23 21 17 16 17 18 18 18 19
7 6 5 2 5 14 4 8 9 9 10 19 24 20 19 18 21 22 18 22 17 25 25 20 16 19 25 1 6 6 9 12 12 11 8 7 6 5 3 2 1 1 1 1 3 4 6 7 8 9 10 10 11 12 12 14 15 15 16 16 16 17 16 16 16 17 18 18 19 20 22 25 21 18 16 20 20 17 18 18 17 17 18 18 19 17
9 4 5 5 3 14 2 4 6 2 6 16 27 26 21 25 26 17 16 19 22 20 14 18 21 24 11 5 5 6 11 11 10 9 8 6 6 5 2 2 4 3 1 1 3 5 5 6 6 7 9 10 11 12 13 13 15 15 16 17 17 16 17 17 16 17 18 19 21 24 22 16 20 22 24 24 20 18 17 16 17 17 17 17 16 16
5 10 8 5 7 0 4 4 3 2 8 24 3 5 20 25 24 25 25 27 23 15 19 19 22 13 4 7 10 9 10 11 10 6 8 9 7 5 3 4 4 3 1 0 1 3 4 5 6 6 7 9 11 11 12 11 12 14 14 15 16 16 16 17 18 17 18 19 19 18 19 22 19 18 18 20 24 24 19 18 18 17 16 16 16 16
13 10 8 5 4 3 3 3 1 4 25 2 1 3 8 16 18 23 28 27 22 19 21 22 24 18 17 8 9 9 9 5 7 9 6 6 7 6 7 6 4 2 0 1 3 3 4 5 7 8 10 10 11 11 12 13 12 13 14 14 16 15 16 16 17 18 17 18 20 21 20 19 20 22 23 20 17 18 20 20 20 19 16 14 15 15
11 11 5 4 3 2 3 5 3 21 6 11 5 6 4 1 6 9 17 24 21 17 19 23 25 20 16 6 4 6 11 8 6 2 4 4 7 9 9 7 5 4 1 1 2 3 3 5 7 8 9 8 10 11 11 12 13 14 16 14 14 15 15 16 17 18 17 18 21 20 20 21 22 22 23 23 22 20 20 18 18 18 16 15 15 13
12 7 7 7 6 10 7 10 19 14 24 32 16 5 9 8 9 11 10 21 12 17 19 18 20 17 10 4 9 9 8 6 5 0 0 6 6 6 9 7 6 3 3 2 1 1 2 2 4 5 7 9 10 11 12 11 12 14 15 15 15 15 15 15 17 18 20 19 19 20 20 20 21 22 22 21 22 21 20 19 20 16 12 14 14 14
10 15 7 8 8 9 6 9 4 6 13 13 7 3 7 7 6 5 1 20 4 16 17 19 19 14 5 9 9 10 7 6 5 5 4 4 7 9 5 7 5 5 4 2 1 1 2 2 3 5 7 9 10 10 10 11 13 14 14 15 15 16 17 16 17 19 18 19 21 21 21 21 21 23 22 21 20 20 18 17 15 16 13 12 13 13
5 2 2 13 4 5 8 9 9 10 18 4 2 3 4 8 9 5 4 17 4 15 16 15 15 8 14 13 10 10 8 8 9 6 8 8 7 6 7 6 5 5 4 3 2 1 2 3 5 6 8 8 11 11 10 12 12 13 14 14 15 15 16 17 18 19 19 21 21 21 21 20 21 22 21 20 20 19 19 18 16 16 13 12 12 13
9 7 4 4 11 11 8 6 14 8 12 2 3 2 6 7 8 4 5 9 2 5 6 8 9 10 12 13 14 10 10 9 10 7 10 10 8 6 7 8 6 5 4 4 3 3 2 2 5 7 9 10 10 10 11 10 11 11 13 14 14 14 15 16 18 19 19 20 21 20 20 21 21 18 17 18 18 17 18 18 16 13 12 12 10 11
8 5 10 20 13 11 11 10 6 11 9 9 10 7 8 8 7 4 17 6 2 5 5 7 7 11 13 12 11 10 8 4 5 9 12 8 7 5 3 4 5 6 5 4 2 3 3 3 3 5 8 9 10 11 10 9 11 12 12 13 13 15 16 18 18 18 19 19 20 20 20 16 15 19 20 18 17 16 16 12 14 14 12 11 10 10
1 2 4 3 9 15 10 10 14 11 10 9 9 16 12 8 2 18 3 4 9 6 5 9 9 11 14 15 12 6 6 8 11 11 11 10 9 9 8 7 7 6 5 5 4 3 2 2 3 5 7 8 10 10 9 9 11 12 13 13 15 16 16 16 18 18 18 20 19 20 21 22 20 20 18 18 19 21 19 18 16 15 15 10 9 11
14 11 11 13 5 1 3 8 2 10 7 24 16 10 9 8 10 3 6 2 3 8 9 5 9 9 11 8 5 8 10 9 12 11 10 9 9 9 8 7 5 4 3 2 2 2 4 3 4 6 8 8 9 7 8 8 10 11 11 13 15 15 16 16 17 18 19 18 18 20 22 21 22 21 17 18 20 21 20 17 16 16 15 13 10 10
9 6 4 7 9 8 11 11 14 14 8 22 23 16 16 19 5 9 8 7 1 5 8 7 5 10 10 12 10 8 10 10 6 9 8 7 6 7 7 6 6 6 4 3 4 3 3 1 3 5 7 7 6 7 7 8 10 11 13 14 13 15 15 15 16 17 18 17 18 20 20 22 22 18 17 19 19 20 18 18 18 18 15 15 9 8
20 16 11 11 11 13 13 17 9 7 16 19 15 0 12 9 9 9 8 9 9 4 4 8 9 8 10 11 9 11 7 9 10 10 10 8 8 8 8 6 6 5 4 3 3 2 2 2 3 5 7 7 5 6 6 7 10 12 14 13 14 16 17 17 18 17 18 19 19 19 18 20 20 19 18 18 18 19 17 19 18 17 16 15 13 8
1 14 6 3 8 10 11 9 5 2 10 15 11 1 6 6 4 6 9 8 7 9 10 10 10 11 8 9 10 4 9 8 9 7 6 8 8 6 7 7 6 5 5 4 2 2 1 2 2 4 6 8 6 6 5 7 8 12 14 13 13 15 16 17 18 18 19 18 18 19 19 21 21 19 18 19 17 16 14 16 17 15 16 15 14 15
9 4 5 8 2 7 11 12 15 11 10 14 16 3 2 7 9 7 8 9 8 8 8 6 13 12 12 9 11 11 9 9 9 8 8 8 8 8 8 7 6 6 5 3 3 2 2 3 4 5 6 8 6 6 6 7 7 8 11 12 13 13 15 16 17 17 16 18 18 17 18 19 17 19 17 16 16 15 13 15 14 15 15 14 15 15
5 13 9 16 9 12 14 3 3 9 13 14 14 11 7 8 8 7 7 8 10 10 11 11 9 8 8 9 10 11 10 8 10 8 7 8 8 7 6 7 7 6 5 5 2 3 3 3 3 4 6 7 7 7 7 8 8 9 10 10 12 13 14 15 15 16 16 18 16 15 16 17 22 21 17 17 14 16 17 15 16 16 15 15 16 16
5 14 10 15 14 19 10 4 6 3 4 10 9 10 10 10 10 8 5 7 8 11 7 6 8 11 11 12 10 10 9 9 10 10 10 7 7 7 7 7 5 5 5 3 2 4 4 2 3 4 5 7 6 7 8 8 8 9 10 11 12 13 14 14 15 15 15 15 14 15 15 15 16 16 17 18 17 13 11 14 16 16 16 15 13 14
10 15 5 8 14 14 18 19 17 7 7 13 16 17 13 10 12 10 8 9 10 11 10 11 4 3 7 9 11 11 12 10 8 9 10 9 9 8 7 7 6 5 4 3 4 4 3 2 2 4 5 6 6 7 7 8 8 9 9 11 11 12 13 15 14 14 14 13 14 14 16 16 16 16 16 16 18 18 16 17 21 18 15 15 25 30
17 21 14 15 17 20 21 11 18 17 6 5 15 15 12 9 11 13 13 13 13 14 15 13 9 5 5 5 6 11 10 11 11 9 9 7 7 7 8 8 7 5 4 4 4 3 2 1 2 3 4 5 5 6 7 8 8 9 10 11 12 12 12 13 12 11 12 13 13 15 15 14 16 16 14 15 17 17 19 19 20 24 26 27 28 28
Wind_Direction
124 61 7 222 214 201 228 179 185 210 194 229 265 240 258 252 274 275 249 254 197 254 234 230 236 228 209 207 200 174 144 137 145 147 147 143 138 143 136 140 164 133 94 23 344 33 16 14 1 348 342 331 330 335 338 340 338 337 333 332 332 331 330 330 327 326 327 326 323 318 314 312 308 303 299 297 298 292 286 283 282 281 276 271 271 273
66 16 285 211 204 191 197 212 205 237 261 222 240 249 265 239 264 252 248 208 301 158 283 244 263 264 261 217 197 173 156 173 163 157 152 147 151 152 149 146 140 174 266 360 358 333 350 11 358 350 332 334 349 340 341 337 333 332 332 335 331 331 330 327 324 322 324 325 318 314 313 312 309 311 312 309 307 300 290 284 280 278 275 273 272 269
8 276 245 211 208 189 235 215 188 188 224 245 224 245 289 268 249 278 233 131 237 330 261 276 255 255 251 253 184 179 182 176 171 157 156 147 150 151 142 143 145 73 95 316 294 309 347 4 346 342 342 340 332 325 331 327 335 338 341 339 334 331 328 324 324 328 327 322 316 316 316 320 319 315 316 312 309 306 298 292 287 280 276 274 272 266
333 293 243 206 144 166 318 202 201 227 255 231 274 289 247 239 332 301 289 335 306 156 265 272 276 262 244 204 178 199 177 149 149 141 148 150 152 155 166 167 158 187 222 284 280 304 333 350 341 347 339 324 327 333 335 343 343 343 343 339 334 330 327 325 328 333 329 324 325 327 322 317 313 311 314 309 305 303 299 295 293 284 277 270 266 264
238 244 194 137 161 157 206 262 139 191 254 253 218 230 254 265 237 202 255 321 305 301 283 290 280 264 186 176 203 185 122 125 147 128 142 159 158 167 155 149 164 172 195 231 293 313 324 338 325 313 306 318 342 342 344 347 348 343 338 334 331 328 327 326 331 334 330 326 326 323 318 314 309 299 295 299 302 308 315 317 308 301 284 269 264 266
279 254 124 140 189 179 142 273 250 168 247 300 238 212 237 192 230 297 322 14 360 311 262 212 322 279 222 190 182 167 148 162 176 147 166 174 173 142 149 174 186 190 188 176 210 238 252 286 287 308 322 344 344 347 349 350 346 341 333 330 331 331 332 333 333 335 334 331 328 327 326 325 323 315 316 315 317 319 312 306 304 304 302 289 277 270
228 91 133 171 172 168 207 208 242 155 228 259 269 168 160 155 180 268 312 44 298 250 307 125 216 286 105 193 185 186 184 182 180 168 182 182 178 169 170 168 180 187 219 272 290 313 331 280 277 305 344 345 347 346 350 350 341 334 328 330 334 334 333 333 333 335 334 328 325 322 318 311 308 306 302 303 305 307 305 302 296 295 299 297 286 274
122 277 73 71 127 193 236 265 245 160 141 241 238 130 115 182 261 245 215 199 249 236 295 290 155 267 283 239 213 180 181 185 187 193 191 187 177 179 172 178 176 195 197 194 231 253 242 253 267 344 351 352 346 346 350 341 335 330 328 331 334 331 331 331 331 328 328 322 319 317 315 311 309 305 303 307 307 305 303 300 304 310 308 306 300 284
155 214 175 188 142 183 230 211 186 141 157 223 211 148 210 204 226 233 218 242 252 360 277 192 222 286 259 274 179 159 187 204 204 193 192 181 182 172 177 181 188 196 200 184 218 228 246 263 323 354 359 353 353 352 345 338 331 329 330 330 329 327 329 329 327 324 321 319 314 312 312 311 308 308 307 306 303 305 309 306 305 300 301 302 302 299
289 206 205 160 151 237 225 237 164 148 190 277 188 189 219 230 242 220 231 245 313 97 269 198 182 209 271 184 108 199 222 214 203 190 182 183 177 175 174 191 194 200 216 220 208 231 248 254 337 19 1 356 349 341 337 331 331 330 328 325 326 327 328 326 326 324 320 319 316 314 312 308 307 307 305 305 303 304 305 300 303 305 303 302 301 303
235 39 144 131 198 209 170 208 163 166 205 146 114 321 341 314 260 198 160 161 39 240 258 202 198 180 284 215 172 165 213 204 163 173 178 187 175 177 176 184 191 197 214 217 230 246 237 264 32 13 4 346 341 339 335 334 334 331 328 326 324 322 321 324 325 325 321 320 319 315 312 309 305 306 306 308 307 306 301 304 310 311 307 303 300 302
4 354 144 261 70 111 100 133 344 89 75 94 2 56 343 311 12 48 351 55 136 267 257 263 206 204 215 284 218 224 328 161 169 174 176 173 175 175 181 194 186 195 197 219 232 241 263 18 14 14 357 344 333 334 335 335 332 327 324 325 321 319 321 322 325 323 322 323 321 318 314 311 307 304 304 305 306 306 304 308 309 311 307 304 299 301
275 222 234 32 235 129 124 71 317 27 16 74 56 36 26 287 12 326 34 293 199 230 229 172 150 296 235 237 217 222 226 174 167 166 166 164 168 177 191 191 193 195 203 220 231 258 26 21 2 352 337 329 329 332 334 333 330 327 325 325 322 317 322 323 326 326 327 326 323 322 319 314 310 307 304 301 301 305 304 306 307 310 308 307 305 306
277 290 336 235 25 213 124 154 252 6 182 107 140 151 75 337 352 259 251 241 291 295 242 150 11 252 271 292 222 190 187 154 142 143 150 155 161 179 185 191 188 196 205 213 215 42 30 2 344 332 315 316 324 333 335 332 330 325 322 322 320 315 320 323 325 327 326 323 320 319 316 313 313 310 307 304 303 305 304 304 302 302 303 302 301 301
329 343 268 159 239 160 178 180 178 173 155 203 146 134 182 156 188 284 194 252 271 250 272 256 25 231 102 236 305 165 139 133 130 138 151 155 164 177 181 179 179 192 219 174 53 53 9 338 327 313 307 316 329 332 331 329 327 325 323 323 320 318 323 326 326 328 325 322 321 320 316 314 310 308 309 307 305 304 305 301 297 298 299 300 300 297
218 226 265 331 173 148 167 230 140 95 63 220 157 82 94 225 136 219 198 216 304 323 305 182 208 194 191 343 44 123 126 129 144 144 141 160 174 165 161 167 180 200 103 51 66 6 325 312 313 312 314 319 327 330 327 326 326 324 322 321 318 318 319 322 325 325 322 318 319 319 319 316 313 312 307 302 302 301 302 301 299 299 300 297 296 294
6 274 276 316 32 110 180 221 231 126 223 221 115 210 209 158 140 295 343 78 14 17 258 160 286 277 319 227 163 148 137 158 153 162 157 174 180 166 172 182 188 156 101 45 48 299 294 306 304 289 294 323 329 329 326 322 323 321 321 321 320 319 320 322 323 320 317 315 317 319 317 317 317 312 311 309 306 306 303 300 301 302 300 293 290 290
211 271 172 108 224 263 208 120 106 24 152 105 202 237 178 133 117 138 237 331 43 231 271 140 246 267 118 277 181 183 177 180 183 179 176 180 169 165 180 179 161 136 136 196 223 251 264 280 294 293 305 323 322 320 320 320 321 318 317 318 317 318 321 322 322 320 319 319 319 316 317 316 312 312 310 306 307 307 303 301 298 297 296 294 291 288
105 300 220 298 145 281 329 68 348 295 30 179 179 250 118 253 280 181 87 271 270 259 276 264 203 251 174 216 162 211 191 196 195 187 173 185 177 174 180 171 169 167 194 209 245 267 281 295 299 296 305 307 308 312 310 310 313 313 314 314 313 312 312 314 316 312 310 313 311 310 311 311 312 311 306 307 303 301 299 296 295 295 293 294 292 287
54 238 301 284 123 209 22 99 226 204 301 40 24 7 299 117 230 148 194 207 148 269 310 275 18 266 167 206 184 200 194 188 183 181 189 188 186 177 171 168 183 208 208 221 238 254 265 284 288 291 305 310 313 313 310 310 312 312 312 312 313 310 312 315 313 312 310 311 309 308 307 307 308 305 308 305 302 302 296 298 296 294 294 291 292 287
223 120 265 108 288 85 206 188 215 166 174 150 146 214 335 200 242 126 286 156 197 233 232 297 297 259 199 175 180 197 187 188 177 181 185 193 179 173 170 171 191 188 201 225 224 243 269 278 280 286 293 300 304 301 306 312 312 309 309 310 313 314 316 316 315 313 310 311 309 309 309 308 309 309 304 300 300 298 300 298 296 292 291 290 289 296
126 172 231 98 291 210 238 228 202 191 184 182 178 202 191 164 199 217 258 103 220 215 230 186 257 263 227 173 184 172 180 172 181 172 185 182 167 169 174 179 167 186 216 207 223 253 274 266 272 285 297 303 307 310 314 315 312 313 312 312 313 314 312 314 315 315 313 312 308 307 309 306 306 303 302 303 300 296 299 297 299 297 291 289 289 291
161 159 172 248 215 242 238 229 61 145 163 210 175 213 182 194 148 195 253 233 36 242 124 248 284 276 145 165 170 163 167 175 171 161 172 166 171 175 176 168 186 187 194 213 225 251 252 256 289 305 319 323 320 317 319 317 316 313 314 315 316 315 312 314 311 311 311 308 307 307 306 306 304 304 303 299 297 297 295 297 293 294 290 289 289 286
106 209 232 266 306 316 19 81 27 34 74 316 259 171 156 200 199 209 224 191 201 101 191 244 234 265 19 350 171 150 156 162 161 161 162 170 174 171 160 181 199 199 219 223 241 250 245 300 317 326 331 329 328 325 320 315 315 315 315 316 315 313 314 316 317 316 314 311 307 307 306 306 305 300 300 299 298 291 293 295 294 293 290 289 285 287
116 242 155 293 318 265 163 3 342 30 42 233 204 204 212 221 221 244 40 70 250 223 216 235 254 266 120 208 137 148 158 172 167 184 157 159 172 169 175 194 194 199 212 240 261 262 304 331 330 327 329 326 321 320 318 317 319 319 317 319 318 314 316 317 317 317 316 314 313 313 316 312 311 306 303 304 298 296 296 294 294 293 291 292 291 290
196 182 140 217 257 287 292 287 275 218 217 218 230 196 197 201 188 141 235 194 223 245 199 233 247 255 143 191 171 185 186 180 162 160 159 153 167 177 187 196 193 189 281 293 299 3 344 320 319 328 331 326 323 321 319 319 320 319 316 314 317 316 318 318 317 316 316 316 315 316 312 308 309 313 313 308 305 300 298 296 290 292 288 286 284 282
193 232 203 213 223 245 253 260 86 116 95 206 224 197 208 198 197 206 195 144 226 234 226 237 227 257 231 208 203 198 195 195 168 167 164 172 184 185 181 172 156 84 345 303 287 318 322 331 333 333 328 323 318 321 320 320 320 321 320 319 321 320 316 315 315 315 316 316 317 314 312 311 314 316 313 315 306 310 303 303 302 300 300 298 295 295
80 236 230 217 233 244 249 262 238 142 248 246 214 212 202 191 203 206 199 231 170 72 257 251 231 242 257 239 211 206 213 205 195 173 181 181 184 175 161 147 123 36 319 289 27 356 337 326 329 328 323 321 321 320 321 318 317 320 321 320 321 320 319 317 317 317 316 316 313 311 313 314 304 300 303 306 308 304 305 302 302 299 298 299 296 294
168 231 242 195 242 248 254 264 266 261 252 261 255 208 204 205 211 210 222 232 194 206 242 258 228 220 248 246 237 213 213 209 184 188 186 174 156 129 119 83 34 320 282 60 2 346 334 334 325 322 322 323 324 323 321 322 323 324 320 317 317 317 317 317 316 314 314 313 309 309 309 310 316 312 312 310 311 309 306 306 300 299 298 295 292 288
80 244 255 191 254 259 258 256 258 254 264 267 255 220 223 219 217 220 230 233 223 238 246 260 267 263 259 246 240 206 197 175 181 162 139 137 153 155 146 152 236 245 123 37 350 332 327 320 319 318 323 324 325 323 324 327 327 323 322 320 320 320 319 322 317 317 313 309 307 305 311 310 303 299 298 306 302 305 308 302 300 296 295 293 292 290
163 258 129 162 252 262 264 251 246 246 251 262 260 232 228 234 233 227 234 243 236 247 251 253 260 268 265 252 251 217 159 141 135 158 170 167 152 158 154 184 217 133 99 21 335 322 319 316 318 321 321 321 320 323 327 325 324 320 316 318 319 319 319 320 315 310 309 307 310 315 310 311 313 307 312 315 314 308 303 299 296 297 295 294 292 291
203 260 69 144 227 269 291 209 238 251 261 261 268 246 228 228 237 234 225 230 218 233 242 254 257 255 260 45 211 158 153 157 171 172 164 162 162 150 163 192 147 123 67 333 313 316 321 324 322 322 317 317 322 329 332 327 321 320 319 320 321 319 320 318 315 311 307 304 304 308 314 312 311 307 302 306 301 301 299 295 293 291 292 292 291 289
195 159 190 186 162 251 48 91 73 56 301 279 253 243 219 223 230 239 245 239 229 227 240 240 238 241 253 148 149 170 165 183 170 168 158 161 170 159 173 181 146 146 158 302 317 317 315 312 312 311 315 321 334 332 328 326 320 321 322 321 320 322 319 318 315 311 308 308 310 314 313 308 304 305 307 307 305 304 300 296 294 292 291 289 289 289
166 200 220 145 201 328 51 113 148 85 277 252 36 167 185 213 217 227 237 238 231 204 228 231 245 256 239 186 185 187 179 185 171 183 161 157 161 172 161 141 140 141 158 257 290 293 299 302 306 313 322 330 328 327 320 320 318 315 319 317 316 318 315 316 314 313 309 309 306 303 309 310 312 308 305 306 306 305 300 296 290 288 284 282 281 280
191 194 214 155 197 178 133 102 70 223 249 29 344 27 188 203 211 215 234 242 239 229 236 249 253 249 245 216 192 183 179 144 134 142 152 161 150 161 158 154 146 141 152 347 303 295 297 307 317 326 336 335 329 323 323 321 324 322 320 320 316 315 316 315 313 312 310 308 311 315 315 312 305 300 301 300 296 299 299 297 297 291 285 282 278 277
190 180 173 203 137 54 130 195 164 239 292 301 186 165 151 180 207 221 257 254 241 231 229 238 247 248 249 214 152 145 136 136 119 138 169 174 162 150 146 155 160 157 146 215 242 287 315 327 331 334 327 323 322 324 326 323 328 326 318 317 313 313 315 314 313 312 315 314 315 314 312 308 309 312 309 303 299 296 296 291 286 287 282 277 274 271
186 173 173 215 162 208 197 190 235 324 322 290 275 183 155 187 174 178 232 264 227 207 226 234 243 245 237 132 135 124 121 115 116 15 331 148 140 144 138 145 151 152 162 190 180 256 325 342 338 330 324 324 327 324 326 328 329 323 319 318 318 317 316 317 315 317 319 315 310 306 308 313 310 305 305 304 301 295 292 295 293 286 276 271 271 268
183 187 186 165 237 192 201 245 282 276 261 274 94 253 199 181 157 168 238 277 198 189 214 223 231 227 158 136 137 140 134 114 207 226 191 172 144 138 127 124 121 133 143 148 142 15 22 348 332 336 335 325 321 321 326 332 328 322 318 317 318 320 320 320 319 319 317 313 311 315 315 310 306 302 301 297 296 293 291 288 287 279 272 265 265 267
223 205 198 203 226 135 205 217 228 235 249 111 223 133 152 109 117 98 74 272 196 189 209 211 221 185 155 154 157 146 139 192 228 187 181 176 165 146 130 133 138 143 138 131 117 64 358 354 349 338 332 322 319 327 335 331 326 322 319 319 320 321 319 321 321 322 319 315 315 310 306 305 304 300 297 296 294 295 294 292 285 281 274 265 259 260
183 188 155 270 224 215 202 207 238 212 257 205 169 106 125 130 97 85 331 276 308 177 209 189 196 164 165 160 157 167 167 207 225 210 169 169 156 148 141 149 143 131 118 114 108 103 65 15 360 343 333 324 319 330 332 330 324 318 316 316 319 319 320 322 323 317 313 309 308 309 308 308 303 294 290 285 289 294 296 293 285 276 265 262 253 257
183 195 195 215 218 224 211 242 301 274 254 159 158 153 134 120 109 108 241 213 180 165 189 159 184 161 154 160 165 179 222 201 147 133 144 144 126 116 111 129 131 135 131 116 87 59 46 31 16 332 319 317 323 332 332 330 324 320 320 319 319 322 322 321 317 315 314 312 309 306 305 307 303 303 306 305 304 304 299 298 301 290 270 262 261 251
279 138 307 278 224 223 212 234 241 280 260 149 173 151 148 103 216 232 239 154 149 172 164 182 157 165 161 170 186 188 130 123 117 126 137 147 151 158 147 133 119 102 104 103 79 70 54 21 352 327 321 322 326 330 329 327 322 319 321 323 321 322 322 320 320 318 315 311 309 309 310 313 313 311 311 312 318 322 313 304 302 303 294 269 255 252
181 160 196 208 194 76 181 235 317 272 257 146 143 146 177 173 243 123 121 46 154 166 161 174 157 165 162 165 164 125 134 128 139 144 148 149 143 150 146 139 134 133 119 98 64 56 62 15 348 329 318 324 325 329 322 319 316 317 319 318 319 321 323 323 322 321 316 312 310 314 314 315 318 319 319 322 324 322 314 313 312 308 307 289 260 253
156 143 207 221 169 170 184 194 210 224 134 154 149 182 189 209 145 147 123 157 117 167 162 143 165 164 164 156 151 144 146 141 138 143 140 145 136 127 128 124 116 110 112 100 104 101 70 17 329 317 316 320 322 319 315 316 318 321 321 320 322 324 325 323 323 320 317 315 315 316 318 319 320 322 324 326 327 326 319 320 319 317 310 306 275 265
190 199 178 191 176 166 197 215 213 119 163 179 184 165 185 168 137 165 144 157 161 209 187 152 164 166 161 153 152 149 152 168 161 161 156 166 151 152 148 144 136 134 135 131 103 88 68 32 337 329 314 317 315 309 313 321 323 323 325 326 330 329 329 327 325 324 321 321 319 320 321 322 322 327 330 332 332 327 327 325 324 321 321 322 319 285
191 208 47 67 222 244 298 276 100 194 170 189 213 129 156 143 166 152 146 150 188 167 168 170 165 166 161 152 138 174 168 169 150 165 148 151 150 141 124 118 118 120 121 110 100 78 68 39 356 338 315 314 314 312 323 327 331 329 326 327 330 329 329 326 326 325 325 323 322 322 326 326 327 331 334 335 334 328 328 326 325 324 322 330 335 336
224 168 169 233 180 117 253 225 193 192 181 191 197 167 145 166 177 168 160 166 174 163 173 157 162 166 163 157 164 171 176 161 165 165 154 149 151 151 149 145 147 147 140 119 115 98 56 35 360 336 321 309 315 323 329 329 329 324 323 329 330 331 329 327 326 324 324 325 324 326 331 333 333 333 335 342 339 332 334 330 328 327 329 334 337 335
266 169 182 228 197 196 238 74 236 170 189 191 192 184 172 188 179 187 172 172 165 172 168 168 152 154 143 165 170 167 171 168 163 169 164 167 162 156 151 153 154 134 114 118 119 97 74 43 358 324 316 312 318 330 329 328 330 330 330 331 335 331 329 327 329 327 325 326 327 329 333 334 336 337 336 341 343 339 336 335 333 332 334 337 337 335
131 126 214 193 206 234 266 249 142 146 218 213 204 207 191 181 174 171 154 142 145 150 157 152 165 162 168 179 165 158 159 184 177 170 168 161 154 156 161 154 144 131 129 123 99 86 72 42 342 314 308 310 320 326 328 329 329 334 339 339 337 335 332 330 327 326 325 328 331 334 336 338 340 339 339 339 343 340 337 334 334 332 328 331 332 336
127 210 180 121 214 222 219 214 137 158 219 207 203 201 198 184 166 160 144 147 158 157 156 155 152 155 177 165 162 162 170 178 173 160 167 167 167 157 152 144 134 127 130 118 102 83 68 30 312 304 307 312 324 325 327 329 332 340 342 341 338 337 336 332 330 330 333 334 335 337 339 343 342 343 340 342 345 336 333 339 343 337 336 335 340 345
192 212 172 198 204 222 222 193 181 208 225 187 185 196 189 168 158 159 169 167 174 169 164 155 148 142 161 181 174 165 170 169 173 157 153 156 159 154 148 138 134 133 130 113 86 63 50 347 313 299 312 318 325 326 328 329 336 342 345 344 339 338 335 332 332 331 333 337 339 339 340 342 341 337 330 342 344 339 337 339 331 340 346 346 346 351